Location: Unspecified
(0.0000°N, 0.0000°E)
Time: 11:01:58
(UTC+00:00)

Explorer 11/Cluster Stage 4 - Pass Details

Date: 20 November 2019
Orbit: 467 x 1259 km, 28.8° (Epoch: 15 December)

Event Time Altitude Azimuth Distance (km) Brightness Sun altitude
Rises 23:18:33 0° 333° (NNW) 3,840 - -69.1°
Reaches altitude 10° 23:23:41 10° 4° (N) 3,054 - -69.5°
Maximum altitude 23:26:11 12° 23° (NNE) 2,987 - -69.6°
Drops below altitude 10° 23:28:46 10° 42° (NE) 3,168 - -69.8°
Sets 23:34:21 0° 71° (ENE) 4,194 - -70.0°
